When you browse on this site, cookies collect data to enhance your experience and personalize the content and advertising you see.
Visit our Privacy Policy to learn more. By continuing to use the site, you agree to this use of cookies and data.
  • In Hungary
  • List of Countries
  • For 7 days
  • Water Temperature
  • Satellite Maps
  • Weather Map
  • News
  • Weather Widgets
  • user-avatar
    Login

    Hourly Weather Olsztyn

    Today, 17 June, Monday

    Time Temperature Precipitation Wind Pressure Humidity
    00:00 +16°C° 0 mm 3 mps 752 mmHg 88%
    01:00 +16°C° 0 mm 3 mps 753 mmHg 87%
    02:00 +14°C° 0 mm 3 mps 752 mmHg 88%
    03:00 +14°C° 0 mm 4 mps 752 mmHg 89%
    04:00 +13°C° 0 mm 4 mps 752 mmHg 89%
    05:00 +14°C° 0 mm 4 mps 753 mmHg 87%
    06:00 +17°C° 0 mm 4 mps 753 mmHg 84%
    07:00 +18°C° 0 mm 4 mps 753 mmHg 81%
    08:00 +18°C° 0 mm 4 mps 754 mmHg 81%
    09:00 +19°C° 0 mm 4 mps 754 mmHg 80%
    10:00 +19°C° 0 mm 5 mps 754 mmHg 80%
    11:00 +20°C° 0 mm 5 mps 754 mmHg 77%
    12:00 +21°C° 0 mm 5 mps 754 mmHg 73%
    13:00 +22°C° 0 mm 5 mps 754 mmHg 70%
    14:00 +21°C° 0 mm 5 mps 754 mmHg 68%
    15:00 +21°C° 0 mm 5 mps 754 mmHg 67%
    16:00 +21°C° 0 mm 5 mps 754 mmHg 66%
    17:00 +20°C° 0 mm 4 mps 754 mmHg 71%
    18:00 +19°C° 0 mm 3 mps 754 mmHg 76%
    19:00 +17°C° 0 mm 2 mps 754 mmHg 81%
    20:00 +16°C° 0 mm 2 mps 754 mmHg 85%
    21:00 +15°C° 0 mm 1 mps 755 mmHg 89%
    22:00 +13°C° 0 mm 1 mps 755 mmHg 92%
    23:00 +13°C° 0 mm 1 mps 755 mmHg 91%

    Tomorrow, 18 June, Tuesday

    Time Temperature Precipitation Wind Pressure Humidity
    00:00 +13°C° 0 mm 1 mps 755 mmHg 91%
    01:00 +12°C° 0 mm 1 mps 755 mmHg 90%
    02:00 +11°C° 0 mm 0 mps 755 mmHg 90%
    03:00 +11°C° 0 mm 0 mps 755 mmHg 89%
    04:00 +12°C° 0 mm 0 mps 755 mmHg 89%
    05:00 +14°C° 0 mm 0 mps 755 mmHg 83%
    06:00 +16°C° 0 mm 0 mps 755 mmHg 76%
    07:00 +20°C° 0 mm 1 mps 755 mmHg 70%
    08:00 +21°C° 0 mm 1 mps 755 mmHg 64%
    09:00 +23°C° 0 mm 1 mps 755 mmHg 59%
    10:00 +24°C° 0 mm 1 mps 755 mmHg 53%
    11:00 +25°C° 0 mm 1 mps 755 mmHg 51%
    12:00 +25°C° 0 mm 1 mps 755 mmHg 50%
    13:00 +26°C° 0 mm 2 mps 754 mmHg 48%
    14:00 +26°C° 0 mm 2 mps 754 mmHg 50%
    15:00 +25°C° 0 mm 2 mps 754 mmHg 53%
    16:00 +25°C° 0 mm 3 mps 753 mmHg 56%
    17:00 +24°C° 0 mm 2 mps 753 mmHg 63%
    18:00 +23°C° 0 mm 2 mps 753 mmHg 70%
    19:00 +20°C° 0 mm 2 mps 752 mmHg 78%
    20:00 +19°C° 0 mm 2 mps 753 mmHg 80%
    21:00 +18°C° 0 mm 2 mps 753 mmHg 82%
    22:00 +17°C° 0 mm 2 mps 753 mmHg 84%
    23:00 +16°C° 0 mm 2 mps 752 mmHg 84%

    Day after tomorrow, 19 June, Wednesday

    Time Temperature Precipitation Wind Pressure Humidity
    00:00 +16°C° 0 mm 2 mps 752 mmHg 83%
    01:00 +16°C° 0 mm 2 mps 752 mmHg 83%
    02:00 +16°C° 0 mm 2 mps 752 mmHg 83%
    03:00 +16°C° 0 mm 2 mps 751 mmHg 83%
    04:00 +14°C° 0 mm 3 mps 751 mmHg 83%
    05:00 +17°C° 0 mm 3 mps 751 mmHg 79%
    06:00 +19°C° 0 mm 3 mps 751 mmHg 75%
    07:00 +20°C° 0 mm 4 mps 751 mmHg 71%
    08:00 +20°C° 0 mm 4 mps 751 mmHg 73%
    09:00 +20°C° 0 mm 4 mps 751 mmHg 75%
    10:00 +20°C° 0 mm 4 mps 751 mmHg 77%
    11:00 +20°C° 0 mm 4 mps 750 mmHg 76%
    12:00 +21°C° 0 mm 4 mps 750 mmHg 74%
    13:00 +22°C° 0 mm 4 mps 749 mmHg 72%
    14:00 +22°C° 0 mm 4 mps 749 mmHg 71%
    15:00 +23°C° 0 mm 4 mps 748 mmHg 70%
    16:00 +25°C° 0 mm 5 mps 748 mmHg 70%
    17:00 +23°C° 0.1 mm 4 mps 748 mmHg 75%
    18:00 +22°C° 0.1 mm 3 mps 747 mmHg 81%
    19:00 +21°C° 0.1 mm 3 mps 747 mmHg 87%
    20:00 +21°C° 0.3 mm 2 mps 747 mmHg 90%
    21:00 +20°C° 0.3 mm 2 mps 747 mmHg 93%
    22:00 +19°C° 0.3 mm 2 mps 747 mmHg 97%
    23:00 +18°C° 0 mm 2 mps 747 mmHg 97%

    20 June, Thursday

    Time Temperature Precipitation Wind Pressure Humidity
    00:00 +19°C° 0 mm 1 mps 746 mmHg 97%
    01:00 +19°C° 0 mm 1 mps 746 mmHg 97%
    02:00 +19°C° 0 mm 1 mps 746 mmHg 97%
    03:00 +18°C° 0 mm 2 mps 746 mmHg 97%
    04:00 +18°C° 0 mm 2 mps 747 mmHg 97%
    05:00 +19°C° 0 mm 2 mps 747 mmHg 94%
    06:00 +21°C° 0 mm 2 mps 747 mmHg 90%
    07:00 +23°C° 0 mm 2 mps 747 mmHg 86%
    08:00 +25°C° 0 mm 2 mps 747 mmHg 77%
    09:00 +27°C° 0 mm 2 mps 748 mmHg 68%
    10:00 +28°C° 0 mm 2 mps 748 mmHg 59%
    11:00 +29°C° 0 mm 2 mps 748 mmHg 56%
    12:00 +30°C° 0 mm 2 mps 748 mmHg 53%
    13:00 +30°C° 0 mm 2 mps 748 mmHg 51%
    14:00 +30°C° 0.1 mm 2 mps 748 mmHg 53%
    15:00 +30°C° 0.1 mm 2 mps 748 mmHg 55%
    16:00 +30°C° 0.1 mm 2 mps 749 mmHg 57%
    17:00 +27°C° 0.4 mm 2 mps 749 mmHg 68%
    18:00 +25°C° 0.4 mm 2 mps 749 mmHg 79%
    19:00 +23°C° 0.4 mm 2 mps 749 mmHg 89%
    20:00 +21°C° 0.1 mm 2 mps 749 mmHg 92%
    21:00 +19°C° 0.1 mm 3 mps 749 mmHg 95%
    22:00 +18°C° 0.1 mm 3 mps 750 mmHg 97%
    23:00 +17°C° 0.3 mm 3 mps 750 mmHg 97%

    21 June, Friday

    Time Temperature Precipitation Wind Pressure Humidity
    00:00 +17°C° 0.3 mm 2 mps 750 mmHg 97%
    01:00 +16°C° 0.3 mm 2 mps 750 mmHg 97%
    02:00 +16°C° 0.2 mm 2 mps 750 mmHg 97%
    03:00 +16°C° 0.2 mm 2 mps 750 mmHg 97%
    04:00 +16°C° 0.2 mm 2 mps 750 mmHg 96%
    05:00 +16°C° 0.3 mm 2 mps 750 mmHg 96%
    06:00 +16°C° 0.3 mm 2 mps 750 mmHg 96%
    07:00 +17°C° 0.3 mm 2 mps 750 mmHg 96%
    08:00 +17°C° 0.1 mm 2 mps 750 mmHg 95%
    09:00 +17°C° 0.1 mm 2 mps 750 mmHg 95%
    10:00 +17°C° 0.1 mm 2 mps 750 mmHg 94%
    11:00 +19°C° 0 mm 2 mps 750 mmHg 88%
    12:00 +21°C° 0 mm 3 mps 750 mmHg 81%
    13:00 +24°C° 0 mm 3 mps 750 mmHg 75%
    14:00 +24°C° 0.1 mm 3 mps 750 mmHg 74%
    15:00 +25°C° 0.1 mm 3 mps 750 mmHg 73%
    16:00 +25°C° 0.1 mm 3 mps 750 mmHg 72%
    17:00 +24°C° 0 mm 3 mps 749 mmHg 78%
    18:00 +24°C° 0 mm 2 mps 749 mmHg 83%
    19:00 +23°C° 0 mm 2 mps 749 mmHg 88%
    20:00 +21°C° 0 mm 2 mps 749 mmHg 91%
    21:00 +19°C° 0 mm 2 mps 749 mmHg 94%
    22:00 +18°C° 0 mm 2 mps 749 mmHg 97%
    23:00 +18°C° 0 mm 2 mps 749 mmHg 97%

    22 June, Saturday

    Time Temperature Precipitation Wind Pressure Humidity
    00:00 +18°C° 0 mm 2 mps 749 mmHg 98%
    01:00 +17°C° 0 mm 2 mps 749 mmHg 98%
    02:00 +17°C° 0 mm 2 mps 749 mmHg 98%
    03:00 +17°C° 0 mm 2 mps 749 mmHg 98%
    04:00 +17°C° 0 mm 2 mps 749 mmHg 98%
    05:00 +19°C° 0 mm 2 mps 749 mmHg 94%
    06:00 +20°C° 0 mm 2 mps 749 mmHg 89%
    07:00 +22°C° 0 mm 3 mps 749 mmHg 85%
    08:00 +24°C° 0 mm 3 mps 749 mmHg 81%
    09:00 +25°C° 0 mm 3 mps 749 mmHg 78%
    10:00 +26°C° 0 mm 4 mps 749 mmHg 75%
    11:00 +26°C° 0.7 mm 4 mps 748 mmHg 77%
    12:00 +26°C° 0.7 mm 4 mps 748 mmHg 79%
    13:00 +27°C° 0.7 mm 4 mps 748 mmHg 81%
    14:00 +26°C° 2.1 mm 4 mps 748 mmHg 84%
    15:00 +25°C° 2.1 mm 5 mps 748 mmHg 87%
    16:00 +23°C° 2.1 mm 5 mps 747 mmHg 90%
    17:00 +22°C° 1.5 mm 5 mps 747 mmHg 92%
    18:00 +20°C° 1.5 mm 4 mps 747 mmHg 94%
    19:00 +19°C° 1.5 mm 4 mps 747 mmHg 96%
    20:00 +19°C° 0.8 mm 3 mps 747 mmHg 97%
    21:00 +18°C° 0.8 mm 3 mps 747 mmHg 97%
    22:00 +17°C° 0.8 mm 2 mps 747 mmHg 98%
    23:00 +17°C° 0 mm 2 mps 747 mmHg 98%
    Show more